Location: Am Bach
(47.2149°N, 9.5217°E)
Time: 02:19:38
(UTC+00:00)

Daily predictions for brighter satellites

Satellite Brightness Start Highest point End
(mag) Time Altitude Azimuth Time Altitude Azimuth Time Altitude Azimuth
Geosat 4.4 00:05:21 43° WSW 00:05:34 44° WSW 00:10:24 10° NW
Cosmos 2360 Rocket 4.0 00:05:57 10° WNW 00:09:13 16° W 00:09:32 16° WSW
Nadezhda 1 Rocket 4.0 00:02:58 10° NNW 00:09:23 75° W 00:11:32 44° S
Cosmos 1862 Rocket 3.9 00:07:49 10° NNW 00:12:03 49° W 00:12:10 48° W
Cosmos 1666 2.6 00:12:13 82° NW 00:12:13 82° NW 00:16:00 10° N
Cosmos 1980 3.7 00:07:10 10° NNW 00:12:51 78° ENE 00:15:18 36° SE
MOZ.5/SAFIR/RUBIN 5/SL-8 4.3 00:12:38 37° SE 00:14:14 56° ENE 00:18:52 10° N
Cosmos 1378 3.5 00:10:56 10° N 00:14:34 54° ENE 00:14:41 54° E
Resurs 1-4 Rocket 3.3 00:12:32 10° NNE 00:17:16 32° E 00:19:09 25° SE
USA 229 DEB 3.9 00:10:30 10° NW 00:17:44 63° WSW 00:21:08 35° S
USA 229 3.9 00:10:35 10° NW 00:17:50 64° WSW 00:21:16 35° S
Intercosmos 25 Rocket 3.6 00:18:31 51° E 00:18:39 51° E 00:22:51 10° NNE
Lacrosse 5 3.0 00:21:12 28° SE 00:21:15 28° SE 00:25:32 10° ENE
Cosmos 1110 Rocket 4.5 00:17:55 10° NW 00:22:57 43° WSW 00:23:33 41° WSW
Cosmos 2084 Rocket 4.1 00:20:05 10° NNW 00:24:13 54° NE 00:27:01 20° ESE
ADEOS Rocket 4.1 00:21:23 12° SE 00:26:05 35° ENE 00:31:01 10° N
Cosmos 1703 Rocket 3.5 00:21:47 10° N 00:26:09 83° E 00:26:49 63° SSE
Meteor 1-14 Rocket 4.5 00:26:17 41° SW 00:27:57 58° WNW 00:33:28 10° N
Cosmos 2297 Rocket 2.3 00:31:41 44° S 00:33:22 66° ESE 00:39:00 10° NNE
Cosmos 1536 3.0 00:35:32 53° SE 00:36:01 58° E 00:39:58 10° NNE
Cosmos 2237 Rocket 2.1 00:31:29 10° NNW 00:37:10 76° WSW 00:39:17 40° S
NOSS 3-1 (A) 4.3 00:30:44 10° NW 00:38:05 52° WSW 00:41:59 31° S
Meteor 1-13 Rocket 4.2 00:32:17 10° NNW 00:38:10 89° W 00:40:27 39° S
CZ-4 R/B 3.9 00:33:13 10° NNE 00:38:13 87° ESE 00:39:36 49° SSW
ARGOS Delta rocket 3.7 00:34:10 10° N 00:39:00 83° WNW 00:40:01 55° SSW
Cosmos 2181 Rocket 4.1 00:34:22 10° N 00:40:47 75° E 00:44:07 30° SSE
BREEZE-M DEB (TANK) 2.9 00:34:20 10° WSW 00:40:55 71° S 00:43:59 10° E
Cosmos 2227 Rocket 2.4 00:42:17 40° S 00:44:09 61° ESE 00:49:44 10° NNE
Cosmos 909 Rocket 4.4 00:41:37 36° S 00:44:15 59° ESE 00:51:38 10° NE
EO 1 Del DPAF 3.9 00:42:09 10° N 00:45:40 40° WNW 00:45:57 39° W
Cosmos 2242 Rocket 3.7 00:45:16 10° NNW 00:49:36 57° W 00:50:12 52° SW
TSX-5 3.8 00:50:00 56° W 00:50:31 64° WNW 00:54:57 10° NNE
Cosmos 1544 2.9 00:52:00 78° S 00:52:13 88° E 00:55:52 10° N
ASTEX 1 3.3 00:51:42 46° S 00:53:07 76° W 00:58:02 10° N
NOSS 2-2 (D) 4.4 00:48:22 10° NW 00:53:41 90° NNE 01:01:12 10° SE
CZ-2D R/B 2.4 00:49:29 10° NNE 00:54:50 63° ESE 00:57:06 34° S
CZ-4C R/B 4.0 00:50:53 10° NW 00:57:29 45° NE 01:05:13 10° ESE
ADEOS II 3.3 00:53:20 10° NNE 00:58:06 34° E 01:01:01 20° SSE
COSMOS 2428 4.2 00:56:13 10° NW 01:00:11 20° W 01:00:22 20° WSW
SL-16 R/B 2.6 00:55:12 10° NNW 01:00:51 64° ENE 01:06:28 10° SE
Meteor 1-23 Rocket 4.3 00:56:03 10° N 01:01:46 82° E 01:04:59 27° SSE
Cosmos 1269 Rocket 4.3 01:00:30 36° SW 01:02:27 59° WNW 01:07:42 10° NNE
Cosmos 2219 Rocket 4.1 01:03:33 10° WNW 01:06:11 14° W 01:06:11 14° W
Timation 1 Rocket 4.4 01:06:26 35° S 01:09:04 73° ESE 01:15:04 10° NNE
Cosmos 2263 Rocket 4.2 01:07:40 10° SE 01:11:31 20° E 01:15:30 10° NE
Cosmos 1869 Rocket 3.7 01:11:10 44° SW 01:12:24 64° W 01:16:53 10° N
Cosmos 1743 2.6 01:19:32 51° SSW 01:20:23 73° W 01:24:13 10° N
Cosmos 1340 Rocket 4.2 01:20:53 23° W 01:21:40 24° WNW 01:24:56 10° NNW
Cosmos 1992 Rocket 4.0 01:17:49 10° NNW 01:23:01 65° WSW 01:25:38 29° S
Meteor 2-12 Rocket 4.5 01:20:37 26° S 01:24:13 78° E 01:30:22 10° NNE
Meteor 1-28 Rocket 4.3 01:21:44 15° SE 01:24:29 42° ENE 01:28:02 10° N
Helios 1A 4.1 01:27:31 26° WSW 01:27:49 26° W 01:31:24 10° NW
Cosmos 2221 Rocket 3.6 01:24:35 10° N 01:29:10 87° E 01:31:42 26° S
Okean 3 4.2 01:25:20 10° NNW 01:29:18 37° W 01:30:10 34° WSW
Okean 1-7 4.4 01:26:46 10° NW 01:30:03 22° W 01:30:27 22° W
Cosmos 2219 3.5 01:28:52 28° SW 01:31:51 58° WNW 01:37:34 10° NNE
Timation 2 Rocket 3.9 01:31:17 29° SW 01:34:31 79° WNW 01:40:40 10° NNE
Cosmos 1975 3.5 01:34:17 23° SSE 01:36:30 51° E 01:40:29 10° NNE
Cosmos 2344 4.3 01:34:47 17° S 01:40:01 41° ESE 01:47:03 10° NE
MINOTAUR 4 R/B 4.1 01:38:26 25° SSE 01:40:23 77° ENE 01:43:57 10° N
Cosmos 1461 4.3 01:39:45 20° SSE 01:42:05 32° ESE 01:46:05 10° NE
UNK 4.2 01:41:38 30° SSW 01:43:22 43° W 01:47:51 10° NNW
Cosmos 1238 Rocket 3.2 01:43:35 24° SSE 01:45:01 42° E 01:48:16 10° NNE
Cosmos 1707 3.9 01:42:01 10° N 01:45:41 41° ENE 01:49:20 10° SSE
Cosmos 1674 Rocket 3.7 01:42:26 10° N 01:46:53 77° E 01:50:25 16° SSE
Helios 1B rocket 2.5 01:43:56 10° N 01:48:00 62° WNW 01:49:49 31° SW
SL-16 R/B 2.9 01:44:52 24° SSW 01:48:09 44° W 01:54:03 10° NNW
Cosmos 2184 Rocket 4.0 01:45:03 24° SSW 01:48:53 69° W 01:55:11 10° N
IDEFIX/ARIANE 42P 3.2 01:44:01 10° NNE 01:49:06 52° E 01:53:13 15° S
ATLAS 5 CENTAUR R/B 3.6 01:44:52 10° WNW 01:49:17 22° WSW 01:50:05 22° SW
Cosmos 2082 3.7 01:48:53 25° SSW 01:52:18 80° WNW 01:58:04 10° NNE
Meteor 1-29 2.8 01:51:46 10° NNE 01:55:06 85° E 01:56:32 31° S
Cosmos 1295 Rocket 4.5 01:50:56 18° S 01:55:40 84° E 02:01:49 10° N
Cosmos 2154 Rocket 4.0 01:51:27 20° S 01:55:56 85° W 02:02:11 10° N
Resurs 1-4 Rocket 2.8 01:52:14 10° N 01:57:10 40° WNW 02:00:13 21° WSW
Cosmos 2251 Rocket 3.6 01:54:37 25° SW 01:57:44 70° WNW 02:03:03 10° NNE
Cosmos 1842 3.3 01:55:42 10° NNW 01:59:30 56° W 02:01:26 26° SSW
Lacrosse 5 2.0 02:00:23 20° WSW 02:03:54 69° NW 02:08:58 10° NE
Cosmos 1378 Rocket 3.5 02:03:50 10° NNW 02:08:14 74° W 02:11:51 14° S
USA 267 4.5 02:03:36 10° E 02:09:42 44° NNE 02:15:49 10° NW
Meteor 1-21 4.2 02:04:43 10° NNW 02:10:30 76° W 02:16:17 10° S
ADEOS Rocket 3.4 02:08:20 20° SSW 02:11:39 37° W 02:16:42 10° NNW
MSX 4.2 02:06:38 10° NNE 02:12:20 63° ESE 02:17:59 10° S
Cosmos 1908 Rocket 3.6 02:13:40 15° S 02:17:14 78° E 02:21:35 10° NNE
Cosmos 2297 Rocket 3.7 02:13:29 11° W 02:17:54 26° NW 02:22:36 10° N
Cosmos 1140 Rocket 3.6 02:14:51 16° SSW 02:19:05 76° ESE 02:24:20 10° NNE
Cosmos 1340 3.9 02:15:59 10° N 02:19:35 42° ENE 02:23:08 10° SSE
Cosmos 2237 Rocket 4.0 02:18:15 10° WNW 02:20:13 12° W 02:21:04 11° WSW
Cosmos 1356 Rocket 3.3 02:20:09 18° SSW 02:23:08 79° WNW 02:27:10 10° N
SL-8 R/B 4.2 02:21:22 19° SW 02:24:30 45° SSE 02:29:05 10° ENE
Cosmos 1733 Rocket 4.0 02:22:03 19° SW 02:24:41 34° WNW 02:28:47 10° N
Cosmos 1626 4.1 02:21:24 10° NNE 02:24:41 29° ENE 02:27:56 10° SE
CZ-4B R/B 4.4 02:20:28 10° NNE 02:25:07 42° E 02:29:38 10° S
DELTA 2 DEB (DPAF) 4.4 02:22:42 13° S 02:26:25 47° W 02:30:43 10° NNW
NOSS 3-3 (A) 4.2 02:22:16 15° SSW 02:27:00 63° ESE 02:33:27 10° NE
NOSS 3-3 (C) 4.2 02:22:23 15° SSW 02:27:07 62° ESE 02:33:31 10° NE
Cosmos 1603 3.9 02:22:17 10° NNW 02:27:56 79° ENE 02:33:34 10° SSE
ARIANE 5 R/B 3.2 02:23:08 10° NNE 02:28:13 55° E 02:33:19 10° S
Cosmos 2227 Rocket 3.6 02:24:06 11° WSW 02:28:37 27° NW 02:33:24 10° N
Cosmos 1674 3.3 02:25:58 10° N 02:29:46 58° ENE 02:33:33 10° SSE
Cosmos 44 3.4 02:27:56 10° NW 02:33:15 84° SW 02:38:14 10° SSE
SL-8 Rocket 4.1 02:27:17 10° S 02:33:26 77° E 02:39:36 10° NNE
CZ-2D R/B 3.7 02:30:22 10° N 02:34:26 23° WNW 02:38:25 10° WSW
Cosmos 2366 rocket 4.4 02:29:47 10° S 02:36:03 67° E 02:42:23 10° NNE
EP 1 4.4 02:35:34 18° SW 02:37:45 89° SE 02:40:26 10° NE
ADEOS II 2.9 02:32:59 10° N 02:37:48 37° WNW 02:41:58 13° SW
Cosmos 1025 Rocket 4.5 02:35:52 10° N 02:39:56 39° ENE 02:44:00 10° SE
Okean 2 4.2 02:37:47 10° NNW 02:41:34 34° W 02:44:58 12° SSW
IRS-1D 4.1 02:38:25 10° N 02:43:04 42° WNW 02:47:18 12° SW
SL-16 R/B 3.4 02:40:13 10° NW 02:44:28 22° W 02:48:30 11° SSW
Cosmos 2227 4.2 02:39:56 11° SSW 02:45:20 85° ESE 02:50:59 10° NNE
IRS-1C 4.2 02:40:01 10° NNE 02:45:24 87° WNW 02:50:45 10° SSW
CZ-4C R/B 3.7 02:42:28 10° S 02:46:25 49° W 02:50:35 10° NNW
CZ-4C R/B 3.0 02:39:17 10° NW 02:46:29 63° WSW 02:54:48 10° SSE
CZ-2D R/B 3.8 02:46:40 10° NNE 02:50:38 63° ESE 02:54:38 10° S
Cosmos 2263 Rocket 2.3 02:49:22 11° SW 02:54:49 71° WNW 03:00:33 10° NNE
Meteor 2-20 4.5 02:48:44 10° NNW 02:54:54 80° W 03:01:03 10° S
Cosmos 676 Rocket 4.2 02:52:10 10° SSW 02:57:29 79° ESE 03:02:50 10° NNE
USA 281 4.1 02:51:43 10° SE 02:58:05 55° ENE 03:04:29 10° NNW
Cosmos 2341 Rocket 4.2 02:52:27 10° SSW 02:58:37 58° WNW 03:04:46 10° N
Cosmos 1782 Rocket 3.6 02:55:25 10° SSW 02:59:43 69° W 03:04:07 10° N
Cosmos 2218 Rocket 4.1 02:55:00 10° S 03:01:23 81° W 03:07:46 10° N
Sich 1 Rocket 4.2 02:57:08 10° S 03:01:26 58° E 03:05:47 10° NNE
CZ-2C R/B 4.0 02:58:55 10° NNE 03:02:26 39° E 03:05:57 10° S
Cosmos 1727 Rocket 4.2 02:58:56 10° N 03:05:12 81° E 03:11:29 10° S
Cosmos 407 Rocket 4.1 03:00:31 10° SW 03:05:34 44° WNW 03:10:37 10° NNE
GEOS 3 Rocket 3.8 03:03:17 10° SSE 03:08:30 52° SW 03:13:42 10° NW
Cosmos 1805 3.2 03:07:05 10° S 03:10:58 86° W 03:14:54 10° N
Cosmos 1818 4.1 03:07:24 10° NNW 03:12:53 68° NE 03:18:19 10° SE
ATLAS CENTAUR R/B 1.2 03:09:35 10° SW 03:13:21 90° WNW 03:17:23 10° NE
ALOS 3.2 03:09:09 10° NNE 03:13:43 50° E 03:18:14 10° S
KORONAS-FOTON 4.3 03:10:33 10° NNW 03:14:15 41° W 03:17:56 10° SSW
Cosmos 1346 Rocket 3.6 03:13:20 10° N 03:17:13 55° ENE 03:21:03 10° SSE
USA 215 3.6 03:11:36 10° ENE 03:18:06 64° SE 03:24:35 10° SW
Cosmos 1763 Rocket 3.6 03:13:15 10° NNW 03:18:38 88° ENE 03:23:56 10° SSE
Cosmos 1461 3.9 03:16:47 10° WSW 03:21:05 39° NW 03:25:16 10° NNE
Cosmos 1536 Rocket 4.4 03:17:01 10° N 03:21:19 55° ENE 03:25:38 10° SSE
